Regional Weather Roundup
Issued by NWS Wilmington, NC

Current Version | Previous Version | Graphics & Text | Print | Product List | Glossary Off
Versions: 1 2 3 4 5 6 7 8 9 10 11 12 13 14 15 16 17 18 19 20 21 22 23 24 25 26 27 28 29 30 31 32 33 34 35 36 37 38 39 40 41 42 43 44 45 46 47 48 49 50

778
ASUS42 KILM 211613
RWRILM
RWRILM
REGIONAL HOURLY WEATHER ROUNDUP
NATIONAL WEATHER SERVICE WILMINGTON NC
1100 AM EST TUE NOV 21 2017

NOTE: "FAIR" INDICATES FEW OR NO CLOUDS BELOW 12,000 FEET WITH NO
SIGNIFICANT WEATHER AND/OR OBSTRUCTIONS TO VISIBILITY.

...............WFO WILMINGTON COUNTY WARNING AREA...............

......COASTAL NC AND SC COUNTIES......

CITY           SKY/WX    TMP DP  RH WIND       PRES   REMARKS
WILMINGTON     CLOUDY    63  49  60 NE5       30.23F
N MYRTLE BEACH CLOUDY    61  48  62 NE7       30.20F
MYRTLE BEACH   PTSUNNY   62  50  64 N6        30.20F

......INLAND NC AND SC COUNTIES.......

CITY           SKY/WX    TMP DP  RH WIND       PRES   REMARKS
LUMBERTON      MOSUNNY   60  45  57 E5        30.21F
ELIZABETHTOWN  NOT AVBL
WHITEVILLE     CLOUDY    55  44  66 NE6       30.21F
FLORENCE       CLOUDY    59  46  62 E5        30.20F
DARLINGTON     SUNNY     57  44  62 E7        30.21F
KINGSTREE      PTSUNNY   55  46  71 CALM      30.19F
HARTSVILLE     CLOUDY    55  41  58 E6        30.19F
BENNETTSVILLE  FAIR      59  45  58 CALM      30.21F
CONWAY         CLOUDY    57  46  67 NE7       30.20F
GEORGETOWN     CLOUDY    61  54  77 NE7       30.19F
MARION         CLOUDY    57  45  62 E5        30.21F

....................REST OF NORTH CAROLINA......................

.........EASTERN NC.........

CITY           SKY/WX    TMP DP  RH WIND       PRES   REMARKS
CAPE HATTERAS  CLOUDY    66  49  54 CALM      30.25F
JACKSONVILLE   CLOUDY    57  45  64 NE5       30.24F
MOREHEAD CITY  CLOUDY    65  53  65 VRB6      30.23F
KENANSVILLE    PTSUNNY   55  43  62 SE3       30.24F
NEW BERN       CLOUDY    56  46  69 N3        30.26F
ELIZABETH CITY SUNNY     58  46  64 W5        30.26F

.........CENTRAL NC.........

CITY           SKY/WX    TMP DP  RH WIND       PRES   REMARKS
RALEIGH DURHAM CLOUDY    54  40  59 CALM      30.21F
ROCKY MOUNT    MOSUNNY   56  44  64 VRB3      30.23F
ROANOKE RAPIDS NOT AVBL
FAYETTEVILLE   MOSUNNY   56  43  61 SE5       30.21F
HOFFMAN        MOSUNNY   55  41  58 SE5       30.20F

.........WESTERN NC.........

CITY           SKY/WX    TMP DP  RH WIND       PRES   REMARKS
CHARLOTTE      CLOUDY    55  39  54 S5        30.18F
GREENSBORO     CLOUDY    53  31  42 SW6       30.18F
HICKORY        NOT AVBL
BOONE          NOT AVBL
ASHEVILLE      NOT AVBL

.....................REST OF SOUTH CAROLINA.....................

.........EASTERN SC.........

CITY           SKY/WX    TMP DP  RH WIND       PRES   REMARKS
CHARLESTON     PTSUNNY   67  55  65 NE8       30.15F
BEAUFORT MCAS  CLOUDY    66  56  70 E7        30.13F
HILTON HEAD    MOSUNNY   66  57  72 NE8       30.13F

.........CENTRAL SC.........

CITY           SKY/WX    TMP DP  RH WIND       PRES   REMARKS
COLUMBIA       CLOUDY    55  46  71 SE3       30.16F
ORANGEBURG     CLOUDY    58  48  69 E5        30.16F
SUMTER SHAW    CLOUDY    57  45  64 E8        30.15F

.........WESTERN SC.........

CITY           SKY/WX    TMP DP  RH WIND       PRES   REMARKS
GREENVILLE     NOT AVBL
ROCK HILL      CLOUDY    52  40  63 CALM      30.18F
ANDERSON       CLOUDY    56  40  55 MISG      30.16F
CLEMSON        NOT AVBL
GREENWOOD      CLOUDY    56  46  69 CALM      30.17F


...................COASTAL AND OFFSHORE REPORTS..................

................LOCAL PIERS AND NC RESERVE................


STATION/POSITION TIME  SKY/WX   TEMP    WIND        PRES    VSBY
                                AIR SEA DIR/SP/G
                 (UTC)          (F)     (DEG/KT/KT) (MB)    (MI)
JOHNY MRCER PIER 1548            58 62   30/ 11/ 12 1023.4F
NC RESRV MASNBRO 1445            59      60/  6     1023.0
OCEAN CREST PIER NOT AVBL
SPRINGMAID  PIER 1548                               1021.9F


................COASTAL AND OFFSHORE BUOYS................


STATION/POSITION TIME  SKY/WX   TEMP    WIND        PRES    VSBY
                                AIR SEA DIR/SP/G
                 (UTC)          (F)     (DEG/KT/KT) (MB)    (MI)
DIMNDSHOAL 41025 1550            66 77  270/  6/ 10 1024.4F
WVE H/P(F/S)=  2/ 8 SWL H/P/D(F/S/D)=  2/ 70/ 8

CAPE LOOKOUT     1600                    30/  8/  9 1023.9F
ONSLOW BAY 41036 NOT AVBL
ONSLOW BAY 41064 1508            69 67  160/  8/ 12 1023.5F
ONSLOW BAY 41159 1600               67                N/A
WVE H/P(F/S)=  2/ 3

MASNBO INL 41110 1559               64                N/A
WVE H/P(F/S)=  2/ 3

WILM HARBR 41108 1530               62                N/A
WVE H/P(F/S)=  2/ 3

27SE WRITB 41037 1508            68 68  190/  8/ 16 1022.9R
FRYING PAN 41013 1600            71 71  140/ 14/ 17 1021.8
SUNST NRSH 41024 1508            55 61   50/  8/ 10 1022.8F
CAPRS NRSH 41029 1508            59 62   50/ 14/ 19 1021.2F
EDISTO     41004 1600            73 74  140/ 14/ 17 1020.4


..........OFFSHORE BUOYS BEYOND 100 NM OFFSHORE...........
.....IN A TRIANGLE---HAT TO BERMUDA TO BAHAMAS TO HAT.....


STATION/POSITION TIME  SKY/WX   TEMP    WIND        PRES    VSBY
                                AIR SEA DIR/SP/G
                 (UTC)          (F)     (DEG/KT/KT) (MB)    (MI)
150E HAT   41001 NOT AVBL
W BERMUDA  41048 1600            71 76  110/ 16/ 21 1024.9
ATLANTIC S 41049 1550            76 79   50/ 17/ 21 1021.4F
WVE H/P(F/S)=  6/10 SWL H/P/D(F/S/D)=  3/310/10

E BAHAMAS  41046 1600            78 81  100/ 17/ 21 1016.3
NE BAHAMAS 41047 1550            72 80   90/ 19/ 25 1018.9F
WVE H/P(F/S)= 10/ 8 SWL H/P/D(F/S/D)=  2/ 60/14

120E CANVRL41010 NOT AVBL

END




USA.gov is the U.S. government's official web portal to all federal, state and local government web resources and services.